Location: Unspecified
(0.0000°N, 0.0000°E)
Time: 15:06:29
(UTC+00:00)

STARLINK-36924 - Pass Details

Date: 04 March 2026
Orbit: 267 x 268 km, 53.2° (Epoch: 6 March)

Event Time Altitude Azimuth Distance (km) Brightness Sun altitude
Rises 19:01:50 0° 218° (SW) 1,840 6.0 -12.5°
Reaches altitude 10° 19:03:42 10° 222° (SW) 1,040 4.8 -12.9°
Maximum altitude 19:05:58 60° 303° (WNW) 300 1.5 -13.5°
Enters shadow 19:07:19 21° 20° (NNE) 660 2.8 -13.8°
